Theta_e
296 287 284 283 284 286 288 288 289 289 288 290 289 287 287 286 285 288 289 292 294 287 286 286 286 287 289 288 290 291 292 292 294 297 299 300 301 302 304 304 304 304 305 307 309 310 310 310 309 309 310 309 309 308 309 308 308 308 310 311 310 309 310 313 311 308 307 307 306 305 307 310 309 314 313 313 312 314 315 316 316 316 315 314 316 316
296 287 284 287 289 290 290 290 291 292 291 290 287 288 284 286 287 289 293 295 296 289 286 288 289 289 290 290 291 293 293 291 293 296 299 300 302 303 304 304 304 304 304 306 307 309 308 308 308 309 309 310 307 308 308 308 308 308 310 311 311 309 310 311 311 311 307 304 307 305 306 307 310 312 310 311 311 312 315 314 313 313 312 313 314 316
285 284 289 291 292 292 294 293 292 292 290 288 290 286 286 283 285 288 291 293 295 290 287 287 289 288 290 292 293 293 293 292 292 297 299 301 301 302 302 303 302 302 302 304 307 308 308 308 308 309 309 308 309 308 308 307 307 308 310 310 310 310 311 310 312 309 306 306 307 305 305 310 308 308 310 309 314 315 312 310 312 312 311 312 312 314
285 284 290 293 293 294 294 293 292 289 287 285 284 285 284 284 287 283 287 292 294 291 290 290 288 287 289 291 293 294 294 293 294 294 297 299 300 301 301 303 303 303 302 303 306 307 308 308 308 308 308 308 307 308 308 307 307 309 312 310 310 310 310 310 312 312 307 308 307 307 309 308 308 309 315 309 308 310 311 311 310 311 310 310 311 313
286 290 294 294 294 294 293 292 291 288 288 287 287 286 285 287 287 286 285 291 291 292 292 286 284 285 285 289 290 293 294 294 295 294 294 295 300 303 303 302 304 304 303 304 305 307 307 307 307 308 308 307 307 308 308 307 307 311 311 311 311 311 311 311 314 310 310 311 310 311 311 312 310 310 308 309 309 308 314 310 308 310 310 311 311 312
288 292 294 293 293 293 292 290 289 289 285 284 286 288 288 288 290 289 289 288 280 282 287 289 281 277 282 286 289 292 292 293 292 291 293 294 296 298 299 301 303 304 304 304 305 307 308 308 308 307 307 307 306 307 309 309 308 310 311 311 311 310 310 312 310 310 311 311 311 310 308 306 306 306 307 306 308 307 309 307 308 310 310 311 309 310
288 291 295 293 291 292 291 290 290 290 283 284 287 290 291 290 289 288 289 286 282 281 285 289 282 274 280 285 288 290 289 291 292 291 294 294 294 296 299 300 301 303 303 304 306 307 307 308 307 307 307 307 307 308 309 309 308 310 312 311 312 311 311 311 309 310 312 308 310 310 309 308 308 307 306 303 303 308 306 307 308 308 308 309 310 310
293 290 292 293 292 290 288 287 290 290 285 284 288 290 291 290 289 288 287 285 279 285 287 285 282 279 277 281 288 288 289 290 291 293 292 294 294 294 297 299 301 303 304 304 305 307 308 308 308 307 308 308 308 308 309 309 309 310 311 311 312 312 313 311 310 310 310 309 308 308 307 310 308 309 309 305 305 305 309 306 308 309 308 307 310 309
289 290 292 291 289 287 286 287 291 291 288 286 290 291 291 292 289 288 287 284 283 284 281 278 286 282 276 282 287 289 288 289 290 291 293 294 295 294 295 298 300 302 304 305 306 307 307 308 308 308 308 309 307 308 309 309 309 311 312 312 312 312 312 311 310 310 308 310 309 308 308 309 308 309 308 307 310 308 310 306 308 308 307 306 306 310
291 292 292 293 289 288 288 290 292 293 290 291 291 292 290 289 288 286 282 284 281 279 275 279 282 279 276 279 282 286 287 287 289 292 293 294 295 295 294 296 298 301 303 305 307 308 308 309 309 309 309 308 308 308 310 309 310 312 312 312 312 311 311 310 310 310 308 308 310 308 308 309 308 308 306 307 307 307 305 306 305 306 306 306 305 306
290 296 301 294 291 291 291 291 292 293 293 293 291 292 286 283 282 283 280 279 280 275 275 281 282 282 276 278 281 284 286 288 289 290 292 294 295 295 295 295 297 299 302 304 306 308 308 309 308 308 307 308 307 307 309 310 310 312 312 312 312 311 311 310 310 309 308 309 309 308 309 309 309 307 307 306 305 305 305 304 305 305 304 305 306 305
288 290 294 292 298 293 293 292 291 291 291 291 287 282 284 285 279 278 276 278 275 267 274 278 282 282 276 277 280 285 288 289 290 290 291 293 294 295 295 295 296 299 302 304 306 307 307 306 306 307 306 306 307 307 308 309 310 312 313 313 312 311 310 310 310 309 308 310 309 308 309 309 309 308 308 307 307 307 307 305 306 305 305 305 306 305
285 286 287 290 299 295 289 290 285 286 284 286 284 283 280 276 271 273 274 273 272 272 278 281 282 281 278 280 285 287 289 290 290 291 292 292 294 295 294 294 295 296 300 303 305 306 306 306 306 307 307 306 306 307 308 309 311 312 313 313 312 312 310 310 310 309 308 309 309 309 309 309 310 308 308 307 306 307 307 306 305 303 304 304 306 306
280 283 288 289 291 294 290 286 280 284 282 284 284 278 278 274 270 266 267 269 274 277 280 280 282 279 279 283 287 287 290 291 292 292 293 294 294 295 296 295 294 296 296 300 302 305 306 307 307 308 308 308 308 308 309 309 310 312 313 314 313 312 311 310 309 309 308 309 309 309 309 309 310 309 308 307 307 307 307 307 307 306 306 305 305 305
274 277 283 286 285 291 289 286 285 285 281 283 284 285 282 276 273 269 272 270 273 276 277 282 280 275 277 282 289 290 292 294 294 295 295 295 295 295 297 298 297 295 296 300 301 303 305 307 308 308 309 309 309 309 309 309 311 312 312 314 313 313 312 310 310 309 309 309 309 309 309 309 309 309 309 308 307 307 306 306 307 307 305 305 305 306
282 278 284 289 291 291 289 291 289 286 284 283 285 285 281 280 278 278 274 276 276 275 276 280 278 276 282 288 291 292 292 293 293 293 294 293 294 295 295 295 296 297 296 299 302 303 304 306 308 309 309 310 310 310 310 310 311 312 312 314 314 314 313 310 310 309 309 309 310 309 308 308 309 310 309 308 308 308 307 307 308 307 306 306 304 303
280 280 286 288 291 289 291 293 292 289 279 285 286 283 283 286 283 274 275 279 273 273 272 271 278 281 282 286 289 290 292 291 292 292 293 292 293 294 294 294 294 295 297 296 300 303 304 305 306 308 309 310 310 310 310 311 312 312 313 313 313 314 313 311 310 310 309 309 309 309 309 308 308 308 308 308 307 307 307 307 307 307 306 304 304 305
280 277 284 287 288 292 292 291 290 290 288 283 281 282 286 290 286 281 273 270 267 269 270 275 274 275 276 275 285 289 289 290 290 290 291 292 292 292 292 293 294 295 295 296 298 300 303 305 305 306 307 307 308 310 311 312 312 313 314 313 314 314 313 312 311 310 309 308 309 309 308 308 309 309 309 308 308 307 307 306 306 304 305 305 306 307
285 280 281 287 288 290 290 290 289 291 290 286 284 289 286 277 280 280 276 270 269 267 266 271 275 274 278 278 283 286 286 287 288 289 290 290 291 291 291 292 293 295 296 296 296 298 299 302 305 304 305 306 307 308 309 311 312 311 312 313 314 314 314 313 312 311 310 309 309 310 309 308 308 308 308 308 308 308 307 307 306 306 306 304 305 308
283 279 279 285 288 289 287 285 281 283 289 291 288 285 285 281 279 277 277 278 276 268 266 269 275 274 280 279 286 286 287 288 287 288 288 289 290 290 290 291 292 293 294 294 295 296 297 299 302 304 306 306 306 306 307 310 310 311 312 312 313 313 312 312 311 311 310 309 309 310 309 309 309 309 309 308 308 308 307 307 307 306 304 305 307 305
283 283 274 281 285 288 282 283 281 282 283 286 285 281 281 280 283 280 282 278 277 265 264 266 268 273 277 282 287 288 287 288 288 288 288 289 289 290 290 290 291 292 293 293 294 295 296 297 300 303 303 306 306 307 307 309 312 312 311 312 313 313 312 312 312 311 311 309 309 309 309 309 308 308 309 308 308 308 307 307 307 306 307 305 305 304
281 279 279 279 281 281 282 286 287 287 286 285 285 282 284 281 281 277 275 278 278 277 271 267 271 275 281 290 290 289 288 289 289 288 289 290 290 289 290 291 291 291 291 292 293 294 295 297 298 303 305 306 306 306 308 310 311 312 313 314 314 313 313 312 312 311 311 310 309 309 309 309 309 309 308 308 307 308 307 307 306 306 305 306 305 304
285 280 280 278 280 281 283 287 288 288 287 287 285 284 285 281 280 277 271 272 277 278 278 275 270 273 283 287 290 288 288 288 288 289 289 290 290 289 289 290 291 291 291 292 294 294 295 296 297 300 304 304 304 305 307 308 311 313 313 313 313 313 313 313 313 312 312 311 310 309 309 309 309 308 308 308 307 307 307 306 306 306 305 305 304 303
303 276 275 278 278 280 283 284 286 287 286 285 282 281 280 281 282 279 278 276 276 274 277 274 272 273 283 289 289 289 289 287 287 288 289 290 291 290 289 289 290 291 292 293 294 294 295 296 297 298 298 300 302 304 306 307 309 310 311 313 313 313 314 314 314 313 312 311 310 310 309 308 308 307 307 307 307 306 306 306 305 306 305 305 303 303
280 279 280 274 270 274 276 276 280 280 283 279 281 282 282 281 281 281 280 278 276 276 278 274 271 273 285 288 288 288 287 287 288 289 288 288 289 289 289 289 290 290 292 293 293 294 294 295 295 296 298 298 298 301 303 306 308 310 313 314 315 315 316 315 313 312 312 312 311 310 309 308 308 307 307 307 306 306 305 305 305 305 305 303 303 303
282 280 279 273 270 267 264 264 267 270 276 280 281 281 282 283 282 279 275 273 272 274 279 274 270 277 282 284 285 287 286 286 287 287 289 288 288 288 289 290 290 291 291 291 292 293 293 292 293 295 296 298 299 299 300 303 305 309 311 313 314 315 315 315 314 313 312 312 311 310 309 309 307 307 307 307 306 305 305 305 305 304 304 304 303 301
282 280 279 274 274 273 276 277 277 281 280 278 280 280 281 282 280 279 276 272 271 269 274 276 279 279 281 282 282 284 285 285 287 287 287 288 288 288 288 290 291 291 292 292 292 292 293 293 293 293 295 296 297 299 301 301 303 304 307 309 311 313 315 315 314 314 313 312 312 311 310 309 308 308 307 307 305 305 305 305 304 304 303 303 302 301
278 276 278 280 278 279 279 279 280 283 280 280 280 280 279 279 280 280 274 274 276 276 273 277 278 279 279 280 282 284 284 283 284 285 286 287 288 289 290 291 294 291 291 291 292 292 292 292 293 294 294 296 297 298 300 301 302 304 304 306 308 312 314 315 314 314 313 312 311 311 311 310 310 308 307 306 305 305 304 304 304 304 303 302 300 300
281 276 279 281 279 279 280 280 281 281 281 281 281 280 279 279 279 277 273 279 278 274 275 276 277 277 278 280 282 284 284 284 284 286 286 287 288 289 289 290 289 289 289 290 290 291 291 293 293 294 294 296 296 297 298 299 300 300 301 304 306 308 312 314 313 313 313 310 309 309 309 308 305 305 305 305 304 304 304 303 303 302 302 302 300 300
281 275 278 280 279 278 280 280 281 281 279 280 281 280 280 279 279 280 280 279 280 279 280 280 277 278 281 280 281 284 285 284 285 286 287 289 288 289 288 288 288 288 289 290 290 291 292 293 293 293 293 294 295 296 297 298 299 300 300 301 303 305 307 309 311 312 311 310 309 305 304 304 303 303 304 305 304 304 304 303 302 301 300 300 299 298
282 275 284 278 276 276 277 280 280 279 279 278 279 279 279 279 280 280 279 278 280 279 278 278 276 276 279 282 283 284 284 285 287 288 288 287 288 289 288 288 288 288 289 290 291 292 292 293 293 294 293 293 294 294 296 297 298 299 300 301 302 303 304 305 307 308 309 308 306 306 306 305 304 304 303 303 303 302 303 303 302 301 299 298 297 297
282 276 278 277 274 274 276 279 279 279 278 277 276 278 278 278 274 276 277 278 277 276 274 275 274 273 277 281 284 285 286 287 287 287 288 288 288 288 287 288 289 289 290 291 292 292 293 294 294 295 294 294 294 295 294 296 297 297 298 300 301 302 303 304 305 307 308 307 307 307 307 306 306 305 305 304 304 304 303 303 301 299 297 296 295 295
279 277 275 272 273 270 276 278 279 276 276 277 273 276 279 279 280 278 280 280 280 278 275 271 274 276 281 286 285 286 284 286 286 287 287 288 287 288 288 289 289 289 290 291 292 293 293 293 294 295 296 297 297 297 297 297 296 297 298 299 301 302 302 303 304 306 307 306 306 306 306 305 305 306 306 305 304 303 303 302 301 298 296 296 296 293
279 281 276 276 271 267 272 276 276 272 270 271 275 279 282 280 279 278 278 279 279 280 275 278 279 279 280 283 284 284 284 286 287 288 289 289 287 287 289 289 289 289 289 290 291 291 292 293 294 296 296 296 297 298 298 298 299 299 300 300 300 300 301 302 304 305 306 306 306 306 306 305 305 305 304 304 303 302 301 300 299 297 297 296 294 292
279 279 276 277 272 273 272 274 270 268 272 278 279 280 282 281 280 280 279 279 279 281 282 281 282 281 284 284 285 285 285 287 287 289 289 289 289 288 289 289 288 289 290 290 291 292 292 292 293 294 295 297 298 299 299 299 298 298 299 299 299 300 301 302 303 304 305 305 306 306 305 305 304 303 302 302 302 301 301 300 297 296 295 295 293 292
274 276 273 273 272 269 269 268 263 271 277 279 280 281 283 284 281 281 279 280 281 281 282 281 282 283 284 284 284 285 286 286 287 288 288 289 289 289 288 288 289 289 290 291 291 291 292 293 294 295 296 298 298 299 299 298 299 299 299 300 300 300 301 302 302 303 304 305 305 305 306 305 302 301 302 302 301 301 299 297 296 294 293 291 290 290
282 278 275 273 272 270 265 267 272 275 277 278 278 278 280 278 278 278 273 275 279 281 281 281 283 283 283 283 284 284 284 284 283 284 286 288 289 289 290 290 290 291 291 291 291 292 293 294 295 296 297 297 297 298 298 299 299 299 299 300 301 301 301 301 302 303 304 304 305 305 305 304 302 302 302 302 301 298 296 294 293 293 293 291 290 290
281 277 275 274 271 273 271 266 265 266 266 267 278 282 285 285 283 281 279 275 282 281 283 283 281 281 282 282 282 282 283 280 279 279 284 287 289 289 289 289 290 291 291 291 292 292 293 294 295 296 296 296 297 298 298 299 299 299 299 299 300 301 301 301 302 303 303 304 304 305 304 303 302 301 301 300 298 296 294 293 293 292 293 292 290 290
281 281 277 277 271 270 270 267 264 263 265 269 278 283 284 284 284 280 276 275 281 281 282 283 283 282 282 282 283 282 282 278 278 282 286 286 286 287 288 290 291 291 292 292 292 292 294 294 295 297 297 296 296 298 298 298 298 298 298 299 300 301 301 301 302 303 303 303 303 304 303 302 302 301 299 298 296 294 293 293 293 293 292 291 291 292
277 274 274 274 271 269 267 267 267 268 268 280 282 283 285 285 283 278 270 268 280 283 284 283 283 282 282 281 282 284 282 277 280 283 285 286 286 288 288 291 291 292 293 293 292 293 294 295 295 295 295 295 296 298 298 298 298 298 299 300 300 300 300 301 302 303 304 303 303 301 301 301 301 299 297 295 294 294 293 293 292 290 290 289 290 290
272 272 274 270 269 272 274 268 267 270 278 283 283 285 286 287 282 272 269 276 285 285 286 285 283 283 282 283 283 282 282 285 287 288 288 288 289 290 290 290 291 292 292 292 293 294 293 293 294 294 295 297 297 298 298 298 298 298 299 299 299 299 301 302 303 303 302 301 300 300 299 298 298 296 295 294 294 294 293 292 291 290 289 288 287 287
270 271 272 271 271 271 269 270 271 270 278 284 285 287 287 281 272 271 279 285 285 286 287 285 285 284 283 285 283 283 286 287 288 288 288 288 288 289 290 291 291 291 291 292 293 293 293 293 294 294 295 296 297 298 298 299 298 298 298 298 298 299 301 302 301 300 300 300 300 299 298 298 297 297 295 294 294 292 290 289 290 290 289 286 286 286
273 271 266 270 270 270 267 269 268 268 279 286 285 281 285 276 276 283 285 286 287 286 286 286 285 286 284 284 285 286 286 287 287 288 288 288 288 289 290 290 290 290 291 291 291 293 293 293 294 295 295 297 298 299 300 301 299 299 298 297 298 300 300 299 300 300 300 299 299 298 298 297 296 295 295 294 293 292 289 287 288 286 286 285 285 285
278 272 270 268 273 267 267 267 269 277 281 287 284 277 280 284 286 286 285 284 284 285 286 286 286 286 285 285 286 286 287 287 287 288 288 289 289 288 289 289 289 290 290 291 292 293 294 294 295 295 296 297 299 301 302 302 299 297 296 296 297 296 298 299 300 300 299 299 298 298 298 297 296 295 294 293 292 291 289 287 286 286 287 285 286 285
279 275 274 272 275 272 267 267 276 281 284 286 288 287 287 288 289 288 287 286 284 285 285 284 286 287 287 287 286 286 286 287 287 288 288 289 289 289 289 290 290 290 291 291 292 293 294 294 294 295 296 298 299 301 302 300 296 293 293 294 294 296 298 299 300 299 298 298 298 297 297 296 295 295 295 293 292 290 288 285 286 286 283 285 284 283
278 280 279 278 276 278 280 281 282 281 282 283 287 288 287 288 289 289 288 284 284 286 286 285 286 287 287 287 286 286 286 287 288 288 289 289 289 289 290 290 289 290 290 291 292 293 294 295 295 296 297 298 300 301 300 299 297 295 296 298 298 299 300 300 299 298 297 297 297 296 296 295 294 294 293 291 291 290 288 288 286 286 286 285 284 283
278 278 277 273 275 274 269 274 279 280 281 282 283 285 286 288 288 287 286 286 286 287 287 286 286 287 287 288 287 287 288 288 288 288 288 288 289 289 289 289 289 290 290 291 293 294 294 295 295 297 297 297 299 300 300 299 298 298 298 298 299 299 299 297 297 296 296 296 296 296 295 294 293 292 290 289 288 288 288 288 287 288 287 285 284 282
275 280 277 277 276 272 271 276 280 282 282 282 282 282 282 285 286 287 287 287 287 287 286 287 287 286 286 286 287 287 287 288 286 287 287 288 288 289 289 289 289 290 291 292 293 294 295 295 296 297 297 297 299 300 299 298 297 298 298 299 299 298 297 296 295 295 295 295 295 294 293 292 288 289 288 288 289 288 286 286 287 286 286 284 283 282
279 282 273 276 275 277 279 280 281 281 281 281 282 282 282 283 284 284 285 285 285 285 285 286 286 287 287 288 288 286 285 286 286 287 287 288 288 288 289 289 290 290 291 292 293 294 295 296 297 297 297 298 299 299 298 298 298 299 298 298 298 298 296 295 294 294 295 295 294 292 291 291 290 289 288 287 287 285 285 286 285 286 284 282 282 284
279 276 279 276 273 272 273 277 279 274 275 279 281 282 282 284 283 283 284 284 284 284 285 285 286 286 287 287 287 286 285 286 287 287 287 288 288 289 289 289 290 291 292 293 294 295 296 297 298 298 297 297 299 298 298 297 297 298 299 299 298 298 295 294 294 294 293 292 291 290 290 289 288 288 288 287 287 288 287 285 286 285 284 282 286 287
277 278 277 272 270 273 279 281 280 280 280 282 283 283 283 284 284 284 284 285 285 285 285 284 285 286 286 286 286 286 286 287 287 287 287 287 288 289 289 290 290 291 292 293 293 294 295 297 297 297 297 298 298 297 297 296 297 297 299 298 298 297 295 294 292 291 290 290 289 289 289 288 288 288 287 287 287 287 287 287 286 287 287 287 288 287
Wind_Speed
0 1 4 5 7 7 5 6 5 4 4 1 3 2 0 0 4 4 4 5 1 2 1 3 4 3 3 4 6 4 2 7 6 8 7 5 6 8 8 10 11 12 14 6 6 8 8 6 5 5 7 7 6 6 7 8 7 8 8 7 7 4 4 6 5 4 6 5 3 3 4 6 2 3 2 3 2 3 2 2 3 3 3 3 3 3
1 1 6 8 10 8 5 3 1 2 2 2 4 1 2 0 1 2 1 4 6 2 1 2 1 1 2 5 5 5 2 3 9 9 10 11 11 11 13 13 13 7 3 5 6 6 4 4 5 5 7 8 10 7 8 10 9 8 7 7 7 4 4 4 5 4 4 4 6 5 5 4 3 4 4 1 1 2 2 2 2 3 3 4 4 3
1 4 9 9 4 1 1 1 2 4 3 2 1 1 1 3 3 7 3 4 2 2 3 2 1 3 4 5 7 3 2 3 8 12 12 12 11 9 9 8 5 5 6 5 9 6 7 6 6 6 7 7 8 9 9 9 8 7 7 6 5 5 5 4 4 4 4 2 2 3 4 6 3 0 1 2 1 2 3 3 2 2 3 4 4 4
4 7 10 2 5 2 0 1 3 3 3 3 2 1 3 3 2 3 5 3 5 2 1 0 2 6 7 4 6 6 3 4 3 7 9 11 12 11 11 12 12 10 9 13 14 15 8 6 7 5 7 7 6 8 7 8 9 8 7 6 5 6 4 4 4 4 2 4 3 3 6 2 3 3 2 3 3 3 3 3 2 1 2 3 3 3
8 10 2 3 4 4 2 1 3 2 3 1 2 2 2 1 3 5 3 4 3 1 3 2 5 7 5 2 2 3 3 2 4 2 5 7 10 13 9 6 8 13 15 14 11 9 9 9 12 13 8 6 8 9 9 9 9 8 9 8 7 7 6 5 4 5 5 6 5 6 4 4 5 4 4 3 1 1 1 2 2 1 1 3 2 3
9 8 0 4 2 2 4 2 5 6 3 2 4 6 5 2 2 3 3 2 4 3 3 2 3 3 4 5 7 7 3 5 2 3 7 6 9 7 9 13 10 8 7 13 17 16 16 15 10 6 8 10 9 10 10 9 10 9 8 7 6 5 5 5 5 6 7 7 8 7 7 5 3 3 3 3 5 2 2 3 1 0 0 2 2 2
5 3 0 3 4 2 4 5 3 4 3 1 5 7 5 3 2 3 0 3 0 2 3 2 5 4 6 3 3 5 4 7 6 4 8 8 3 9 12 12 12 14 13 8 8 12 13 11 8 9 11 12 12 9 7 8 9 9 8 8 7 7 6 5 5 6 7 7 7 9 9 7 7 7 4 2 2 3 2 0 1 1 1 1 2 1
1 5 5 2 0 2 2 4 3 7 6 3 3 5 4 3 2 3 4 4 2 2 3 4 3 2 3 5 5 4 5 7 10 10 7 9 10 7 10 12 13 14 14 14 15 16 16 14 15 17 17 13 12 8 8 9 8 9 9 8 8 6 6 5 6 6 7 9 7 6 6 6 6 7 7 5 4 2 1 2 1 0 0 1 0 1
1 4 1 2 0 1 5 6 4 6 4 4 1 6 3 3 3 5 5 4 1 1 5 4 1 0 2 7 6 3 4 6 8 8 10 10 10 7 10 12 14 15 17 17 15 16 16 14 14 14 14 12 8 10 12 12 9 8 8 7 5 6 6 6 7 8 6 8 9 8 7 6 4 5 4 3 1 3 1 3 0 0 1 1 1 0
2 6 4 4 4 4 5 3 8 9 1 5 3 4 5 5 5 4 4 5 1 2 4 3 1 3 4 6 6 2 1 6 7 8 9 11 11 10 6 10 11 12 13 15 18 19 18 16 17 15 9 8 12 9 7 7 7 8 7 8 8 7 6 6 8 7 7 6 8 7 7 8 6 4 2 4 4 4 2 4 2 1 0 1 1 1
4 4 6 4 4 6 5 3 6 9 6 3 4 1 2 7 3 3 5 3 3 1 5 8 3 3 2 4 5 3 3 4 2 6 8 9 10 7 5 8 10 12 14 14 15 16 19 14 6 7 12 11 6 6 8 9 9 9 10 10 10 9 7 7 9 8 8 6 7 8 8 8 8 5 5 4 3 3 2 3 4 2 2 0 1 2
5 1 1 3 1 2 2 1 2 1 1 2 1 2 2 3 6 2 3 4 1 5 6 3 3 5 4 4 5 8 6 2 3 8 10 13 12 11 9 1 7 11 14 16 15 16 9 6 8 8 7 9 9 7 9 9 10 11 11 10 11 8 8 7 9 8 8 7 7 6 8 8 8 8 7 8 7 6 6 4 5 3 1 1 0 0
2 4 2 6 3 7 2 0 3 4 4 6 6 6 2 2 3 3 2 3 4 4 2 2 5 1 3 7 4 6 7 7 4 5 7 6 10 12 11 2 3 4 4 12 15 12 9 11 11 12 10 8 10 13 14 14 12 10 10 12 13 12 10 10 9 9 8 7 7 8 8 7 7 7 7 7 7 6 6 6 4 3 3 2 1 2
5 3 4 5 4 0 5 4 2 1 1 5 5 4 4 0 1 2 5 1 4 6 2 2 2 1 4 4 2 3 5 4 5 4 1 6 10 11 12 10 3 9 2 5 5 6 11 11 12 12 13 14 14 14 14 13 11 10 11 12 14 14 11 9 8 9 8 8 8 7 8 8 7 7 7 7 7 7 6 7 6 6 6 6 5 3
1 4 3 1 1 2 2 2 3 2 2 6 0 9 8 7 4 4 3 4 5 6 3 3 1 3 2 1 5 5 3 4 4 0 3 8 8 10 12 13 12 7 2 9 5 4 6 12 13 13 14 14 14 15 14 11 11 10 11 12 13 12 10 10 11 9 9 9 7 7 7 8 7 8 7 7 7 7 7 6 6 6 4 6 5 5
3 5 4 4 2 1 3 0 4 4 1 1 2 5 6 6 6 5 5 3 2 1 1 0 2 3 5 3 4 4 2 3 4 10 13 12 11 15 15 13 11 10 7 1 5 7 4 5 6 11 12 13 14 15 12 12 11 11 13 13 14 15 13 12 11 11 11 9 7 7 8 8 8 7 7 6 6 6 7 7 7 7 6 5 4 3
2 2 1 7 3 4 1 0 2 2 1 1 2 2 4 1 6 3 2 1 4 4 4 0 5 3 5 3 4 5 6 8 8 10 12 10 10 15 12 11 10 9 10 7 1 3 1 1 2 5 5 7 9 10 12 14 15 16 14 12 13 12 10 11 12 11 10 9 8 8 8 7 7 8 9 9 9 8 6 6 6 6 6 4 3 4
4 4 2 3 1 1 1 3 4 4 3 5 1 4 2 1 3 3 3 2 3 2 5 1 3 3 2 2 4 5 8 6 7 7 7 9 11 13 9 9 9 9 7 6 7 3 2 6 4 4 3 1 3 5 7 12 12 11 11 13 14 12 13 12 11 11 10 10 9 8 8 8 9 10 9 8 9 7 7 5 5 4 5 5 5 5
3 3 3 1 2 6 5 2 2 2 3 6 2 1 1 2 3 3 3 1 1 2 3 2 1 2 4 4 0 1 3 2 4 5 10 10 10 8 8 8 9 10 10 9 8 7 7 1 5 4 2 1 2 4 3 3 5 4 5 8 11 15 15 14 12 10 9 9 9 9 10 10 8 7 7 7 7 7 7 7 7 6 6 4 4 5
3 2 4 3 0 2 3 2 3 4 6 1 3 3 0 4 2 1 3 2 5 3 1 5 2 5 5 5 11 5 4 3 3 7 5 5 4 5 4 5 6 8 8 9 9 9 8 7 2 5 7 6 5 4 4 4 4 6 5 5 7 6 5 5 8 9 10 10 9 9 7 7 8 8 8 7 8 8 8 8 7 6 5 7 5 5
1 1 2 2 4 1 1 1 4 2 1 5 6 2 3 1 1 2 1 1 3 3 4 3 3 4 5 5 7 7 5 4 4 5 4 4 4 2 2 4 4 5 6 8 9 9 11 9 9 5 3 4 5 5 4 5 6 6 4 6 6 8 8 9 10 10 11 9 10 9 10 10 8 8 7 7 8 9 8 7 7 8 7 5 6 6
0 1 4 3 5 1 2 2 3 4 6 6 3 2 2 0 3 2 8 2 1 1 3 3 6 6 7 0 2 7 4 4 3 5 3 2 3 3 2 1 2 5 5 5 6 8 9 10 9 8 3 0 3 4 6 7 6 6 8 10 10 9 8 9 9 10 10 9 9 11 11 10 9 9 8 9 8 8 8 8 8 7 6 7 6 6
1 2 2 2 4 4 3 4 3 3 3 2 6 2 3 2 4 3 2 4 2 2 4 3 1 3 2 3 1 4 4 3 3 3 3 1 2 4 3 2 2 4 5 5 6 7 7 7 7 7 5 4 3 3 4 5 7 9 9 8 7 9 11 11 11 10 9 9 10 12 11 10 9 8 9 10 9 9 9 8 7 7 8 7 6 4
4 0 1 3 6 6 6 4 0 1 4 4 3 2 3 4 3 6 4 3 2 1 0 1 1 4 3 4 1 1 0 2 2 1 3 1 1 2 4 5 5 4 4 4 5 5 5 6 6 9 8 7 4 2 2 4 4 4 4 6 6 9 11 10 10 10 10 10 11 11 9 10 9 8 9 10 9 9 8 8 7 7 7 7 6 7
1 2 2 1 2 6 6 5 2 2 4 2 2 1 2 2 2 1 3 1 1 4 6 5 6 1 2 3 2 1 2 3 2 1 1 3 1 2 3 3 3 4 5 6 7 7 8 9 9 7 7 7 7 5 3 2 3 4 5 6 8 10 12 10 5 6 9 10 11 10 10 10 9 10 10 10 8 9 8 8 8 7 8 7 7 6
0 2 1 2 4 4 4 2 4 3 3 1 0 1 0 3 0 3 1 1 1 3 2 2 2 6 4 6 5 6 4 4 3 3 2 1 1 1 2 2 4 4 5 6 6 8 7 5 5 7 8 8 9 7 4 4 4 4 4 5 5 8 7 6 6 8 9 10 11 11 11 11 9 11 12 10 8 9 8 8 8 7 6 8 7 5
0 1 1 3 4 7 7 6 5 1 1 3 1 3 0 0 1 3 3 2 4 2 3 6 2 2 7 3 3 3 3 3 1 3 3 2 1 0 1 0 3 5 5 5 5 4 4 7 6 4 6 7 8 9 8 6 4 3 4 5 4 4 5 5 4 6 8 10 11 11 12 12 12 12 11 10 9 7 7 8 8 8 8 6 7 6
2 1 1 1 3 6 6 6 4 3 4 2 2 2 4 4 4 4 4 5 4 0 9 3 4 5 8 4 4 3 4 3 2 1 0 0 0 1 1 0 2 4 5 5 7 7 5 4 5 5 5 6 8 9 9 8 7 5 4 5 5 4 5 5 4 5 6 5 7 9 11 12 12 11 10 8 8 8 8 7 8 7 6 6 6 6
1 0 3 0 4 4 4 6 5 3 3 4 4 3 4 5 2 5 5 7 6 5 9 4 6 5 4 6 3 3 5 2 4 3 3 2 0 1 4 6 7 5 5 6 4 4 5 5 5 6 6 5 5 7 8 9 10 10 8 5 5 4 5 5 5 6 6 4 4 4 4 5 3 2 6 8 9 10 9 8 8 7 7 6 6 6
1 1 1 2 3 3 5 3 3 3 3 3 4 5 5 4 7 7 7 5 10 8 10 8 5 10 6 3 5 7 2 2 3 2 2 4 4 4 5 6 5 5 5 5 4 3 1 1 1 2 3 5 5 4 5 6 7 8 9 10 7 5 5 4 5 5 4 4 4 2 2 3 3 2 4 7 8 8 9 8 7 7 7 6 6 6
2 3 4 2 3 5 5 6 3 1 1 4 2 2 3 6 7 7 3 1 3 5 6 6 6 8 7 6 6 4 4 0 2 6 4 3 4 5 5 5 4 4 4 4 5 5 4 3 1 1 2 4 4 4 4 4 5 5 8 9 9 8 5 3 4 5 7 7 6 7 7 8 7 6 5 5 7 5 5 7 6 6 6 6 6 6
3 4 2 2 4 7 5 3 5 4 3 3 4 4 4 5 5 3 4 6 5 6 4 1 4 6 4 2 2 2 4 5 2 2 4 4 4 4 3 4 5 5 6 5 5 5 6 6 5 5 4 4 4 4 4 5 4 4 5 6 8 10 5 4 4 6 7 7 7 8 9 9 10 10 11 11 12 13 10 8 7 6 6 6 6 5
2 1 1 0 4 5 7 4 6 3 6 10 6 7 11 7 7 1 1 3 7 6 4 4 8 5 4 1 3 2 2 1 1 1 3 4 1 1 1 2 3 4 6 6 7 7 7 7 6 6 7 6 7 6 5 4 5 5 6 7 7 7 8 5 6 6 6 6 7 8 9 9 10 11 11 11 10 10 10 9 8 7 7 7 5 5
3 4 4 3 4 6 2 2 1 2 9 8 2 8 11 9 8 7 5 6 6 5 4 6 6 4 1 4 5 3 1 1 2 4 3 3 3 1 1 1 2 3 4 5 5 5 6 7 7 7 6 7 8 7 6 5 6 8 7 8 6 6 8 8 8 7 8 7 8 8 9 10 11 11 10 9 9 9 8 8 8 7 6 7 6 6
4 3 4 3 4 7 2 1 2 9 11 3 1 1 3 5 6 7 4 5 3 2 1 1 2 3 4 4 4 4 3 4 4 7 6 3 4 2 0 3 5 5 5 6 7 7 7 7 8 7 8 8 8 8 8 10 7 8 9 6 7 7 7 7 8 9 9 8 9 8 8 9 10 9 9 9 11 12 11 11 9 9 8 9 9 8
3 5 2 1 2 1 1 4 2 8 3 4 6 4 4 0 1 2 4 4 3 3 4 4 3 2 4 3 4 4 3 4 6 5 5 4 4 2 1 2 4 4 5 6 6 7 7 8 8 8 9 7 8 9 8 11 11 10 12 9 8 8 7 8 8 9 9 9 9 9 10 10 9 11 13 13 12 12 12 10 10 9 7 7 6 6
7 2 2 4 2 5 3 6 10 5 8 4 3 3 3 1 1 1 4 6 1 1 2 2 2 2 3 4 4 3 1 2 1 6 3 3 5 4 3 4 4 5 5 6 5 7 7 7 7 8 7 8 8 10 11 11 11 11 12 12 10 8 8 8 9 10 10 10 10 10 10 10 11 12 12 12 12 11 10 9 7 7 7 8 8 8
5 6 4 4 3 4 4 4 4 2 5 3 1 3 2 2 3 5 5 1 3 2 1 4 3 4 5 4 4 4 1 1 3 4 6 6 5 6 4 4 4 5 5 6 6 5 5 6 6 7 8 10 10 10 11 12 11 11 12 12 10 9 9 9 10 9 8 10 10 10 10 9 8 10 11 11 13 12 10 8 7 7 7 9 8 7
4 2 4 8 2 2 1 3 4 3 4 2 5 5 4 2 5 4 4 0 1 2 3 3 4 4 5 4 4 1 2 4 6 6 8 7 6 4 5 6 5 5 5 5 5 6 6 7 7 9 9 9 11 11 11 11 10 10 12 12 11 10 11 11 10 8 8 9 9 9 9 9 10 11 11 11 11 12 12 10 9 7 6 7 7 6
4 1 2 1 2 3 3 3 5 2 1 1 4 4 4 7 4 5 1 3 2 4 5 3 6 4 5 4 2 1 1 5 6 7 5 5 4 3 4 7 7 8 8 6 5 6 7 7 8 9 9 10 12 11 10 9 8 9 10 11 10 11 13 12 10 9 8 8 7 5 6 7 7 6 9 10 9 7 10 8 8 7 7 6 6 6
3 3 1 3 2 4 3 4 2 3 1 2 3 3 6 3 3 2 4 1 5 6 6 4 5 5 3 4 2 4 5 7 7 4 2 4 6 8 5 5 6 6 7 7 8 6 7 8 7 9 11 10 11 10 9 8 8 9 9 9 11 13 13 12 10 8 7 6 7 7 8 8 9 8 8 8 10 9 8 8 8 7 6 6 3 4
3 0 2 2 0 1 2 3 6 2 3 2 3 0 3 2 0 3 2 2 3 6 5 3 4 6 4 5 5 5 6 6 7 5 5 5 6 8 7 8 8 7 5 6 8 7 8 8 7 8 9 9 10 9 8 8 10 9 8 9 12 13 12 12 7 5 7 9 9 10 11 12 12 12 8 6 9 9 8 5 7 7 6 6 6 4
2 1 3 1 2 1 2 0 1 1 1 1 2 3 2 2 3 3 4 4 1 3 4 4 3 7 4 5 6 7 7 8 8 9 8 6 6 8 9 8 8 9 10 8 8 7 7 9 9 9 9 8 8 8 8 9 10 9 9 12 14 11 10 5 7 9 10 11 12 12 12 11 11 9 8 7 9 10 7 5 5 4 5 5 4 4
1 1 2 2 2 1 0 1 1 3 1 1 2 1 1 4 4 2 1 4 4 2 3 4 5 5 5 5 7 7 7 7 9 8 8 7 6 7 7 7 7 8 8 8 8 10 8 9 9 10 9 8 8 8 8 8 8 9 11 14 11 7 6 9 11 13 13 12 12 13 13 13 10 6 7 9 10 9 9 6 4 4 5 5 6 6
1 1 4 3 3 1 3 4 5 3 2 2 2 3 6 7 3 4 4 4 4 6 3 3 6 8 6 6 6 6 7 8 9 9 8 11 10 9 9 10 8 9 9 9 11 10 8 9 10 10 9 8 9 9 8 4 6 7 8 7 4 7 9 11 13 15 15 14 13 11 8 8 9 9 8 8 9 8 7 5 5 5 2 4 4 4
3 2 1 0 5 3 4 8 5 4 1 3 2 4 7 7 5 3 5 5 5 7 5 6 6 7 8 6 5 6 6 8 10 11 10 10 10 10 8 9 9 7 8 9 9 9 9 9 9 9 10 10 9 8 4 3 2 4 5 4 2 3 9 14 15 14 14 14 13 12 11 12 10 9 7 6 7 7 7 8 6 6 5 3 3 3
2 0 0 2 2 3 4 4 1 3 4 5 6 7 6 5 5 4 5 5 7 7 7 6 7 8 9 8 7 9 10 10 10 10 10 10 11 10 10 10 9 8 9 10 10 8 9 8 9 9 9 10 9 7 2 1 3 3 4 5 4 4 9 11 14 15 15 16 13 8 7 9 7 6 5 5 6 5 5 6 5 5 4 3 3 2
6 1 3 4 5 6 6 5 7 8 7 7 8 7 5 6 8 7 7 8 8 6 5 8 7 7 6 8 10 10 11 10 8 10 10 10 10 9 9 8 9 8 8 9 9 9 9 8 8 8 7 8 8 3 0 2 4 5 5 6 6 7 11 13 13 12 9 8 7 8 8 7 8 8 6 6 7 6 5 4 5 6 5 5 4 3
5 2 5 1 3 5 5 9 11 9 8 8 7 5 6 7 7 8 8 8 7 8 9 9 7 9 6 10 8 7 8 10 9 10 11 10 9 9 9 8 8 8 9 9 8 8 8 7 8 6 6 7 3 3 2 5 5 5 6 5 7 10 13 12 10 9 8 7 7 7 7 7 6 6 6 6 5 3 4 6 5 4 1 1 4 6
1 7 6 4 6 7 7 9 2 5 8 8 7 6 7 8 7 9 7 6 7 8 9 9 10 7 7 8 8 7 9 10 10 8 10 10 9 9 7 8 8 8 9 8 7 8 9 8 7 6 6 5 3 6 6 8 6 6 6 4 7 8 10 10 11 11 10 8 7 7 7 6 6 6 6 6 6 6 4 4 4 4 2 2 6 8
5 5 3 4 4 8 9 11 5 6 9 11 12 10 6 7 6 8 9 10 10 8 7 7 9 9 8 7 6 7 9 10 12 9 9 9 9 8 7 7 8 8 8 8 8 10 9 8 6 6 5 1 7 7 9 9 7 6 2 2 2 2 4 7 9 8 7 7 7 8 7 6 6 6 6 6 6 5 7 4 1 1 4 4 4 6
Wind_Direction
130 151 215 220 226 234 244 195 195 215 176 85 90 114 155 74 288 281 287 267 93 96 330 261 261 29 294 271 276 262 180 187 189 201 201 210 195 195 197 196 194 197 201 186 186 190 193 180 174 157 153 154 150 156 152 144 148 150 154 151 166 167 145 133 131 122 123 112 87 64 91 121 109 106 73 64 49 76 81 87 86 101 103 90 65 47
73 348 268 227 228 220 234 214 165 85 64 157 115 86 343 175 287 255 263 318 338 143 290 311 201 318 249 283 275 306 10 137 177 190 201 207 200 200 198 198 200 189 77 150 194 209 184 163 175 163 164 158 156 180 160 156 161 157 149 162 169 155 158 151 152 150 136 161 167 158 164 144 149 120 116 108 82 98 84 71 88 82 73 69 72 73
12 250 254 239 218 134 139 97 147 136 126 54 220 165 11 298 251 289 288 317 309 87 275 330 75 272 277 275 289 288 234 227 173 182 204 197 206 210 210 207 164 154 180 177 205 203 197 177 179 177 179 184 169 164 169 161 151 153 158 172 170 167 165 174 157 134 157 156 144 133 158 145 134 288 233 135 105 106 96 53 39 60 71 84 72 72
305 276 250 261 132 126 19 88 115 68 65 109 67 57 248 239 43 300 291 348 350 81 287 265 27 294 311 292 275 277 267 278 191 195 193 192 203 209 214 197 183 183 173 187 196 202 191 177 181 183 190 183 162 163 172 165 159 159 169 176 174 175 174 171 181 152 161 122 112 69 111 88 110 151 120 87 69 69 85 73 26 22 100 84 77 76
221 245 183 99 122 162 201 196 160 176 226 305 156 151 244 207 230 163 247 321 312 348 76 77 19 333 342 342 325 325 338 348 306 140 187 227 218 209 206 194 201 189 184 190 196 202 196 186 192 191 182 166 177 181 175 168 167 170 177 181 180 175 178 182 163 137 129 106 90 92 73 79 71 47 42 59 15 17 117 99 76 48 30 79 82 78
286 275 105 274 221 162 181 230 229 155 234 329 242 186 197 196 229 290 328 31 23 335 346 77 351 299 292 295 262 284 351 316 325 339 280 226 203 211 198 205 194 199 211 193 191 195 197 199 181 161 177 187 187 186 183 175 171 170 173 176 180 175 174 179 162 154 144 145 139 131 124 124 105 113 119 171 201 227 177 181 200 332 31 80 76 35
217 289 322 248 233 182 175 208 232 155 176 96 270 193 208 179 132 137 26 82 12 190 286 27 172 260 327 315 287 292 332 301 298 303 280 286 235 185 208 201 189 189 195 208 211 205 203 201 168 184 192 195 193 188 164 175 178 177 172 176 180 178 178 175 162 167 147 145 151 157 161 162 164 163 221 236 240 188 222 211 161 180 33 16 109 65
347 311 10 38 106 155 153 233 239 146 122 229 240 141 135 118 154 189 157 146 206 254 299 37 106 178 298 293 263 335 330 292 306 298 274 265 264 216 211 203 195 191 190 188 196 206 207 194 183 188 196 192 193 163 168 180 181 177 175 176 184 181 177 176 161 173 168 155 161 152 153 159 159 171 191 202 210 213 207 137 182 42 28 354 8 103
127 327 349 320 85 120 197 210 188 147 141 215 195 167 164 198 189 138 132 168 207 130 273 326 333 343 265 266 309 354 326 296 287 277 284 284 275 242 220 210 198 191 187 188 193 203 206 196 198 198 193 192 161 174 179 183 177 176 179 178 175 185 178 178 169 173 190 164 166 160 156 161 183 174 181 171 168 166 183 145 72 106 320 356 14 24
271 198 231 163 139 229 236 226 162 158 158 276 151 104 76 72 74 119 116 128 317 76 265 261 196 205 287 280 327 334 256 281 261 276 282 276 276 285 225 215 202 189 189 194 196 199 204 202 199 195 183 164 189 175 170 168 167 177 176 179 178 189 189 182 177 180 185 178 157 156 167 163 173 161 128 137 160 180 170 173 214 265 323 347 7 9
253 314 169 133 197 210 196 231 170 185 183 126 102 87 13 41 29 22 73 100 68 237 251 236 224 163 280 264 228 181 230 205 303 302 285 295 311 303 259 203 190 184 186 193 200 204 208 202 174 153 179 185 157 167 173 174 177 179 185 186 184 189 188 186 182 180 186 181 172 168 170 166 166 168 154 142 176 170 155 183 226 241 242 340 303 346
339 334 142 247 141 100 161 111 34 41 36 122 74 113 41 312 18 30 336 43 177 274 259 260 200 157 165 292 282 247 287 293 245 271 294 317 327 338 330 193 197 187 187 194 195 206 194 118 153 164 175 174 179 169 182 187 182 187 188 185 186 187 190 190 189 186 189 180 184 173 168 168 170 164 167 173 182 188 185 192 204 233 322 284 325 17
306 238 259 314 247 162 97 87 300 27 15 81 78 46 105 250 40 272 7 276 216 208 254 176 134 53 233 223 256 304 274 281 254 244 287 313 3 5 352 7 78 343 261 197 196 194 171 178 165 178 179 168 180 192 192 190 190 186 187 187 187 194 190 190 188 190 191 187 186 177 174 172 165 171 175 182 184 185 184 189 196 188 213 257 290 267
281 294 340 300 334 92 120 165 283 356 353 118 148 134 99 158 37 241 275 213 305 290 256 204 246 241 242 301 271 244 292 288 302 312 290 53 40 28 31 10 33 129 132 307 288 204 182 181 184 181 179 186 192 196 196 192 187 185 188 192 192 197 189 185 185 190 190 200 193 184 177 173 165 176 182 188 187 189 188 183 190 189 191 194 208 216
22 343 308 140 245 297 81 137 174 195 174 223 118 149 182 144 167 241 205 229 228 220 285 288 85 242 94 218 300 269 294 10 39 351 59 50 45 51 38 41 36 4 111 160 188 251 217 193 187 182 186 192 196 198 196 191 192 182 188 192 198 196 191 187 189 188 194 198 199 193 185 175 173 176 184 194 191 182 184 194 189 198 186 185 204 195
223 205 257 225 256 51 111 224 137 127 127 258 157 75 88 228 143 215 204 166 232 291 345 221 209 191 117 246 265 286 265 53 54 53 47 37 40 48 36 29 29 39 9 21 164 192 229 267 224 195 192 197 198 198 193 193 189 189 194 193 195 194 190 191 190 193 192 197 196 197 186 186 179 179 181 189 193 194 190 187 187 193 191 197 183 201
9 293 275 326 4 74 351 174 284 109 175 252 117 201 219 176 110 79 30 29 111 42 253 197 330 302 294 344 343 327 57 18 41 55 55 43 40 50 40 22 27 29 36 22 55 157 172 216 247 273 252 224 205 192 197 197 195 196 190 188 194 196 193 193 195 193 192 193 191 202 197 185 182 179 182 190 195 193 194 190 193 186 194 177 173 174
145 239 289 116 331 281 66 93 67 3 136 80 84 251 268 113 115 140 217 339 59 162 260 37 204 279 65 218 307 350 59 5 30 42 59 51 44 49 35 29 19 25 27 34 44 34 188 183 208 208 200 241 316 288 239 214 205 199 192 191 190 190 192 197 195 193 193 192 196 198 201 196 190 189 193 190 191 186 180 194 191 179 154 184 183 159
112 283 298 254 164 271 355 84 14 344 25 135 188 224 88 291 293 320 86 325 275 267 269 307 249 256 195 233 267 242 95 47 25 38 57 46 43 46 34 21 16 23 23 21 19 33 29 311 199 179 196 190 177 183 200 293 305 283 222 205 197 197 197 192 192 192 192 193 196 197 198 194 197 200 195 194 186 176 183 187 187 184 187 163 162 150
43 199 297 308 111 318 349 60 231 297 325 32 66 21 16 102 171 72 204 198 130 250 66 289 42 242 214 211 173 181 184 154 99 56 69 80 81 64 52 26 25 19 20 11 10 17 17 25 315 213 183 186 191 204 205 190 180 216 230 233 222 216 196 185 192 192 197 197 195 200 199 202 196 196 193 188 180 185 190 186 181 179 170 184 168 163
289 80 231 279 304 325 319 346 171 162 70 343 22 340 1 24 214 110 79 144 202 184 185 203 298 281 264 215 158 161 176 171 126 116 121 118 118 119 61 46 34 33 28 17 13 9 13 9 3 331 254 184 166 160 168 185 197 197 181 217 222 210 200 195 197 192 203 191 199 195 198 197 194 198 193 186 188 186 187 180 179 180 180 159 171 158
56 74 215 310 358 328 243 242 174 171 167 156 188 251 220 165 304 291 270 21 88 131 237 130 241 274 273 93 176 144 200 174 168 128 120 92 92 105 110 68 75 59 36 30 25 23 19 12 11 359 341 328 165 185 184 184 176 187 205 210 207 207 205 202 198 200 200 195 196 199 201 199 196 193 186 188 189 189 183 178 178 174 159 170 175 161
147 157 99 222 208 227 230 253 265 235 148 179 138 215 125 111 106 113 195 275 3 250 115 148 118 279 248 281 262 176 174 197 209 141 113 75 37 28 34 87 98 69 54 58 55 42 27 31 22 30 19 351 323 257 213 193 195 205 216 218 208 200 209 202 203 200 196 196 198 205 203 196 196 190 191 190 190 188 182 180 173 168 165 169 165 171
94 65 42 301 307 296 312 294 126 328 113 66 26 48 78 114 151 168 175 181 165 302 58 356 218 244 297 338 351 325 286 283 282 251 150 155 343 3 13 26 50 61 51 51 53 48 34 30 26 23 13 6 353 307 263 228 212 207 202 206 208 217 221 212 204 197 194 197 205 209 200 200 196 189 193 195 193 188 182 174 171 168 166 165 158 163
19 299 124 3 2 338 340 342 11 334 54 81 130 2 98 98 64 114 93 54 164 235 178 135 232 245 260 334 304 321 332 338 345 334 145 104 347 360 21 40 31 47 54 45 43 38 35 29 19 9 0 354 356 348 317 312 265 231 217 200 204 217 224 224 202 193 200 201 206 203 204 205 192 193 197 199 191 188 177 172 167 168 164 156 161 166
239 237 113 237 235 264 283 295 266 277 262 214 127 89 341 62 295 9 300 9 126 281 116 174 249 259 281 315 325 318 327 319 294 298 320 6 6 16 50 40 38 50 46 44 36 40 44 35 20 12 359 350 346 348 332 290 273 270 266 249 235 230 232 221 195 199 200 204 203 204 204 204 194 198 199 195 190 186 177 169 166 164 162 159 160 161
135 110 121 150 160 198 214 221 248 119 15 288 249 123 232 355 49 120 104 118 209 237 255 233 177 278 278 265 266 263 248 237 250 299 333 355 6 143 197 318 44 46 32 28 40 48 51 38 29 15 5 352 345 342 338 346 328 289 273 271 266 264 256 247 229 220 214 211 209 208 206 201 200 198 194 188 181 171 172 169 163 160 160 162 153 154
59 6 280 146 190 214 208 209 246 162 236 237 260 242 183 189 179 149 158 235 187 301 273 251 202 190 252 234 256 304 292 260 265 327 301 159 333 357 335 144 55 35 21 26 33 33 36 21 14 16 6 4 353 345 349 341 343 349 320 291 277 242 226 226 223 234 239 246 243 230 219 210 204 195 188 174 161 165 170 164 159 160 153 145 145 153
115 234 275 345 272 258 221 233 256 267 213 221 221 200 179 226 188 186 224 210 147 186 234 245 178 215 233 205 229 250 257 272 313 327 297 255 239 354 27 31 25 17 17 34 21 25 27 20 4 354 354 352 355 354 346 343 339 341 342 329 301 268 243 224 211 215 218 214 230 265 301 318 313 186 163 167 166 160 162 162 154 150 150 151 148 156
73 269 248 216 278 315 293 265 269 221 267 247 241 232 222 176 218 215 229 206 182 216 221 234 207 238 238 214 237 253 275 244 275 299 337 31 353 358 22 28 17 5 14 8 351 347 2 5 334 320 319 329 334 332 335 334 331 332 332 328 324 304 272 222 218 212 203 192 191 164 136 149 166 202 190 173 165 156 146 147 147 149 152 153 152 154
94 271 15 22 14 292 287 317 326 291 215 272 272 241 205 202 223 230 235 249 206 273 276 267 265 272 268 212 239 294 319 251 46 23 356 311 345 1 14 6 0 2 345 345 345 340 327 310 277 265 292 302 305 298 301 301 308 317 325 321 318 310 296 253 205 198 193 193 169 159 156 155 158 156 149 129 108 113 141 146 146 154 151 146 147 152
59 275 46 49 332 289 295 338 301 328 319 239 235 220 208 205 224 231 208 209 168 222 237 279 297 266 272 271 246 319 21 53 43 326 338 323 318 8 15 358 358 347 347 341 338 338 336 333 328 324 308 292 277 276 284 290 281 292 289 293 302 302 297 271 233 213 214 195 185 183 174 170 165 162 167 175 166 162 161 154 154 152 151 145 143 146
185 150 328 299 279 254 259 247 262 319 349 288 260 195 202 211 210 216 289 205 202 174 191 209 238 220 191 137 91 347 11 356 331 267 281 302 350 72 38 0 345 333 337 331 332 331 324 318 311 308 314 315 316 310 293 270 283 277 268 270 271 288 295 262 243 239 226 203 194 191 182 177 175 180 177 175 162 147 147 156 153 149 150 157 147 122
155 186 237 158 228 255 280 337 319 29 263 245 232 181 177 206 212 214 225 211 232 155 199 189 211 205 142 124 149 185 204 253 235 257 218 218 278 278 324 290 307 305 304 312 306 304 305 306 303 298 294 294 294 295 293 291 281 281 277 274 272 272 277 279 263 240 233 212 204 196 189 182 181 180 173 162 147 139 137 142 157 160 148 128 120 123
226 223 223 159 225 260 277 69 307 252 255 255 286 216 197 179 155 180 230 236 208 180 125 168 173 162 192 177 164 186 220 262 267 257 278 251 195 170 354 330 327 319 309 305 310 308 305 298 294 296 303 304 303 305 314 309 303 295 291 276 272 262 263 264 264 255 240 224 212 202 197 188 185 167 154 152 145 146 157 166 159 153 152 145 147 147
228 216 201 283 170 28 82 134 180 243 259 322 299 282 251 81 157 72 325 292 273 216 199 193 196 197 186 215 232 218 213 264 308 277 239 245 199 161 176 279 278 284 291 283 285 289 291 294 290 289 290 294 303 301 301 298 300 300 292 291 277 276 264 260 256 252 245 234 219 207 204 192 173 163 163 160 156 158 159 159 157 149 141 126 130 137
217 123 144 252 157 208 187 177 232 332 315 306 287 360 23 343 288 225 246 287 269 267 158 161 201 251 281 255 239 254 272 344 318 298 281 214 227 212 206 239 234 258 263 271 264 271 275 282 286 285 286 288 288 293 294 294 296 292 293 291 285 279 272 262 255 249 237 231 217 206 198 190 178 173 167 160 154 153 148 145 145 140 133 128 139 143
174 165 225 152 263 157 220 281 315 318 265 284 234 289 231 231 237 235 151 318 317 302 168 140 196 243 240 272 280 266 142 108 333 280 274 272 254 258 266 260 273 269 267 269 279 280 283 280 281 279 276 281 285 284 286 288 291 291 287 286 287 283 275 266 259 251 235 225 214 203 194 181 163 159 164 162 155 154 149 139 135 139 139 134 145 154
5 201 152 164 228 65 199 206 222 198 247 216 271 282 278 255 244 222 72 188 260 306 285 243 271 244 218 231 254 196 32 349 278 265 271 263 261 250 269 284 279 269 266 268 269 278 282 281 275 280 284 281 280 279 278 279 281 282 283 285 286 280 273 268 263 254 234 222 209 202 183 161 169 173 164 158 150 141 137 139 140 137 128 135 149 169
12 12 64 158 238 204 167 209 248 203 228 303 267 293 298 300 321 60 283 270 265 284 260 195 248 265 269 243 206 12 237 273 279 267 242 254 270 268 264 284 292 292 292 281 273 259 266 276 291 289 281 275 273 276 276 274 273 270 274 279 277 275 270 269 265 250 228 212 193 169 150 163 162 150 138 125 114 110 115 118 115 126 134 154 161 163
0 335 74 210 198 242 219 264 330 309 279 283 285 306 317 306 60 117 200 242 297 293 288 247 262 254 232 271 189 276 228 223 247 274 348 306 309 299 282 267 262 262 271 274 272 277 279 274 264 267 270 272 275 275 272 269 266 266 267 270 273 268 268 267 260 239 205 169 143 130 119 103 107 105 101 112 118 120 117 121 131 138 147 155 143 123
334 17 307 52 63 244 220 185 233 234 234 230 267 228 290 35 81 206 229 228 245 285 298 233 249 273 253 264 255 233 257 274 287 293 285 270 259 271 280 283 291 284 250 244 263 276 281 280 274 267 266 263 268 269 264 259 260 262 263 264 263 263 261 261 239 174 140 134 131 125 125 124 122 111 114 135 124 121 123 128 137 151 151 142 147 152
241 34 255 287 259 30 54 265 351 255 281 180 272 14 14 84 233 246 287 293 249 297 291 294 231 268 239 272 260 259 278 289 286 287 285 274 264 271 279 286 287 287 292 293 288 271 269 286 288 282 276 276 271 269 265 262 263 264 261 261 259 255 251 214 154 137 130 126 123 123 123 121 118 124 137 142 124 119 128 137 129 127 132 135 143 159
227 299 287 285 179 194 265 230 207 196 238 227 104 184 239 229 255 242 156 280 302 241 267 275 275 259 254 242 270 284 277 280 290 285 285 277 256 254 261 263 264 271 274 268 267 282 287 282 283 286 287 284 277 272 272 268 267 266 267 266 264 242 192 161 146 132 128 127 124 125 129 127 128 141 136 136 135 138 138 139 129 130 148 152 156 167
158 150 175 233 251 178 213 221 256 237 237 262 156 211 255 268 207 207 178 220 253 281 222 251 268 278 266 254 259 256 279 277 273 275 276 279 285 283 284 283 281 277 275 281 287 288 286 283 288 291 289 283 279 281 284 260 251 263 269 276 246 188 165 148 138 132 129 126 121 115 109 109 121 139 158 152 131 119 116 115 132 128 153 138 140 144
273 270 185 109 265 293 256 224 261 308 310 314 268 267 276 271 260 206 221 253 241 231 235 242 259 264 275 264 258 277 255 264 274 281 280 280 282 284 282 280 277 268 269 277 283 283 282 286 287 288 287 285 282 285 268 270 298 301 301 330 312 199 156 143 133 125 122 117 123 134 138 146 159 152 141 112 114 127 141 149 157 144 153 140 138 134
271 282 61 211 274 8 285 339 293 258 282 284 282 275 269 259 261 255 263 253 261 264 268 263 252 263 263 271 251 251 262 263 268 273 279 283 281 276 273 270 266 259 266 273 272 281 286 285 287 286 285 284 284 291 272 333 7 351 351 5 6 94 106 105 112 115 121 128 132 141 149 138 129 113 103 109 108 114 123 132 127 123 130 130 129 119
308 176 343 236 239 221 242 257 282 288 282 274 268 271 269 266 263 260 249 257 265 272 264 267 273 270 254 256 248 245 253 261 265 270 271 269 267 270 269 262 259 265 262 259 270 273 274 275 275 279 281 279 285 310 295 53 47 42 33 30 41 83 91 91 95 102 105 108 127 128 123 113 111 116 121 128 126 117 94 84 124 129 144 150 147 141
235 7 271 199 270 269 273 272 266 285 284 270 262 249 238 249 256 269 268 266 264 265 271 270 246 248 255 252 250 241 256 266 256 256 262 267 269 267 262 256 257 260 268 274 271 267 268 274 278 270 266 281 300 113 114 76 65 69 62 57 64 73 87 95 97 101 122 135 132 117 115 128 140 133 128 109 78 83 136 144 134 136 147 211 151 162
114 240 252 299 292 281 252 271 260 301 288 295 269 250 261 261 261 266 271 266 255 254 257 264 276 266 251 255 256 252 254 265 267 260 262 261 261 264 264 264 266 270 272 269 267 265 268 267 262 260 270 299 150 146 122 91 81 80 84 75 112 122 134 139 145 150 158 150 132 123 135 143 136 138 119 110 117 103 57 53 127 147 141 190 206 210
204 233 212 226 217 261 263 263 251 228 261 259 270 275 250 256 258 262 265 265 271 269 266 271 279 290 283 267 239 235 250 257 266 268 267 265 259 248 248 260 272 277 277 274 276 275 268 263 241 237 267 214 150 146 127 137 147 163 224 274 209 195 170 167 153 149 138 127 135 150 146 129 122 117 112 123 124 122 123 107 71 162 196 211 211 208